Weather History for Denver, CO

Change the Weather History Date:

Sunday, December 1, 2013

  Actual Average Record
Temperature  
Mean Temperature 43 °F 32 °F  
Max Temperature 56 °F 45 °F 73 °F (1973)
Min Temperature 30 °F 19 °F -6 °F (1985)
Degree Days  
Heating Degree Days 22 33  
Month to date heating degree days 22 33  
Since 1 July heating degree days 1345 1415  
Cooling Degree Days 0 0  
Month to date cooling degree days 0 0  
Year to date cooling degree days 999 769  
Moisture  
Dew Point 18 °F    
Average Humidity 39    
Maximum Humidity 53    
Minimum Humidity 24    
Precipitation  
Precipitation 0.00 in 0.01 in 0.54 in (1913)
Month to date precipitation 0.00 0.01  
Year to date precipitation 17.35 13.96  
Snow  
Snow 0.00 in - - ()
Month to date snowfall 0  
Since 1 July snowfall 3.4  
Snow Depth 0.00 in    
Sea Level Pressure  
Sea Level Pressure 29.96 in    
Wind  
Wind Speed 9 mph (WSW)    
Max Wind Speed 22 mph    
Max Gust Speed 26 mph    
Visibility 10 miles    
Events      
T = Trace of Precipitation, MM = Missing Value Source: NWS Daily Summary

Daily Weather History Graph

Daily Weather History Graph

Search for Another Location

Airport:

Trip Planner

Search our weather history database for the weather conditions in past years. The results will help you decide how hot, cold, wet, or windy it might be!

Date:

Astronomy

Dec. 01, 2013 Rise Set
Actual Time 7:01 AM MST 4:34 PM MST
Civil Twilight 6:31 AM MST 5:04 PM MST
Nautical Twilight 5:57 AM MST 5:37 PM MST
Astronomical Twilight 5:25 AM MST 6:10 PM MST
Moon 5:22 AM MST (12/1) 3:46 PM MST (12/1)
Length of Visible Light 10h 33m
Length of Day
9h 33m
Waning Crescent, 2% of the Moon is Illuminated
Dec 1
Waning Crescent
Dec 2
New
Dec 9
First Quarter
Dec 17
Full
Dec 25
Last Quarter

Hourly Weather History & Observations

Time (MST) Temp. Windchill Dew Point Humidity Pressure Visibility Wind Dir Wind Speed Gust Speed Precip Events Conditions
12:53 AM 36.0 °F 27.5 °F 14.0 °F 41% 30.04 in 10.0 mi SW 12.7 mph - N/A   Partly Cloudy
1:53 AM 30.9 °F 22.2 °F 15.1 °F 52% 30.07 in 10.0 mi WSW 10.4 mph - N/A   Partly Cloudy
2:53 AM 32.0 °F 23.0 °F 14.0 °F 48% 30.06 in 10.0 mi SW 11.5 mph - N/A   Scattered Clouds
3:53 AM 33.1 °F 23.4 °F 14.0 °F 46% 30.05 in 10.0 mi SW 13.8 mph - N/A   Scattered Clouds
4:53 AM 33.1 °F 24.9 °F 12.9 °F 43% 30.07 in 10.0 mi SW 10.4 mph - N/A   Scattered Clouds
5:53 AM 35.1 °F 27.9 °F 12.9 °F 40% 30.06 in 10.0 mi SW 9.2 mph - N/A   Mostly Cloudy
6:53 AM 34.0 °F 26.6 °F 14.0 °F 44% 30.08 in 10.0 mi SW 9.2 mph - N/A   Mostly Cloudy
7:53 AM 36.0 °F 30.3 °F 14.0 °F 41% 30.09 in 10.0 mi WSW 6.9 mph - N/A   Mostly Cloudy
8:53 AM 39.9 °F 37.8 °F 16.0 °F 38% 30.11 in 10.0 mi West 3.5 mph - N/A   Scattered Clouds
9:53 AM 46.0 °F 43.9 °F 17.1 °F 31% 30.10 in 10.0 mi West 4.6 mph - N/A   Scattered Clouds
10:53 AM 51.1 °F - 18.0 °F 27% 30.06 in 10.0 mi WNW 4.6 mph - N/A   Scattered Clouds
11:53 AM 52.0 °F - 18.0 °F 26% 30.01 in 10.0 mi NW 5.8 mph - N/A   Mostly Cloudy
12:53 PM 52.0 °F - 19.0 °F 27% 29.96 in 10.0 mi Calm Calm - N/A   Scattered Clouds
1:30 PM 55.4 °F - 17.6 °F 23% 29.98 in 10.0 mi WNW 17.3 mph - N/A   Scattered Clouds
1:53 PM 53.1 °F - 17.1 °F 24% 29.93 in 10.0 mi WNW 10.4 mph - N/A   Mostly Cloudy
2:53 PM 52.0 °F - 19.0 °F 27% 29.91 in 10.0 mi SW 4.6 mph - N/A   Mostly Cloudy
3:53 PM 53.1 °F - 17.1 °F 24% 29.89 in 10.0 mi SW 5.8 mph - N/A   Mostly Cloudy
4:53 PM 42.1 °F 36.1 °F 21.9 °F 45% 29.90 in 10.0 mi SSE 10.4 mph - N/A   Mostly Cloudy
5:53 PM 42.1 °F 36.6 °F 21.0 °F 43% 29.87 in 10.0 mi South 9.2 mph - N/A   Mostly Cloudy
6:53 PM 41.0 °F 36.4 °F 19.0 °F 41% 29.88 in 10.0 mi SSW 6.9 mph - N/A   Mostly Cloudy
7:53 PM 44.1 °F 38.6 °F 19.0 °F 37% 29.85 in 10.0 mi SW 10.4 mph - N/A   Mostly Cloudy
8:53 PM 45.0 °F 40.6 °F 21.0 °F 39% 29.82 in 10.0 mi West 8.1 mph - N/A   Mostly Cloudy
9:53 PM 46.0 °F 40.2 °F 24.1 °F 42% 29.78 in 10.0 mi WSW 12.7 mph - N/A   Mostly Cloudy
10:53 PM 46.9 °F - 24.1 °F 41% 29.78 in 10.0 mi WNW 13.8 mph 23.0 mph N/A   Mostly Cloudy
11:51 PM 46.4 °F 40.4 °F 23.0 °F 40% 29.87 in 10.0 mi West 13.8 mph - N/A   Mostly Cloudy
11:53 PM 46.9 °F - 23.0 °F 39% 29.76 in 10.0 mi West 12.7 mph - N/A   Mostly Cloudy